Location: Newark
(47.5500°N, 8.6167°E)
Time: 19:30:00
(UTC+00:00)

UNISAT 6 - Visible Passes

Search period start: 10 April 2020 00:00
Search period end: 20 April 2020 00:00
Orbit: 608 x 688 km, 97.7° (Epoch: 10 April)

Date Brightness Start Highest point End Pass type
(mag) Time Alt. Az. Time Alt. Az. Time Alt. Az.
10 Apr ? 19:39:36 10° NNE 19:44:06 61° E 19:48:27 10° S visible
10 Apr ? 21:17:19 10° NNW 21:20:18 18° WNW 21:23:15 10° WSW visible
11 Apr ? 20:05:30 10° N 20:10:01 75° WNW 20:14:24 10° SSW visible
11 Apr ? 21:44:56 10° NW 21:45:52 11° NW 21:46:48 10° WNW visible
12 Apr ? 18:55:25 10° NE 18:58:58 23° E 19:02:26 10° SE visible
12 Apr ? 20:31:36 10° N 20:35:51 41° WNW 20:39:59 10° SW visible
13 Apr ? 19:20:51 10° NNE 19:25:05 40° E 19:29:11 10° SSE visible
13 Apr ? 20:57:56 10° N 21:01:34 25° WNW 21:05:08 10° WSW visible
14 Apr ? 19:46:35 10° NNE 19:51:05 73° ESE 19:55:25 10° S visible
14 Apr ? 21:24:40 10° NNW 21:27:12 15° WNW 21:29:41 10° W visible
15 Apr ? 20:12:33 10° N 20:16:59 63° WNW 20:21:16 10° SSW visible
16 Apr ? 19:02:14 10° NE 19:06:00 26° E 19:09:40 10° SSE visible
16 Apr ? 20:38:43 10° N 20:42:46 35° WNW 20:46:43 10° SW visible
17 Apr ? 19:27:47 10° NNE 19:32:04 47° E 19:36:15 10° S visible
17 Apr ? 21:05:08 10° NNW 21:08:28 21° WNW 21:11:43 10° WSW visible
18 Apr ? 19:53:35 10° NNE 19:58:03 86° ESE 20:02:22 10° SSW visible
18 Apr ? 21:32:06 10° NNW 21:34:03 13° WNW 21:35:59 10° W visible
19 Apr ? 20:19:36 10° N 20:23:54 52° WNW 20:28:05 10° SSW visible
